TimeEET,TemperatureF,Dew PointF,Humidity,Sea Level PressureIn,VisibilityMPH,Wind Direction,Wind SpeedMPH,Gust SpeedMPH,PrecipitationIn,Events,Conditions,WindDirDegrees,DateUTC
12:00 AM,62.6,55.4,77,29.71,-9999.0,East,4.6,-,N/A,,Clear,90,2013-03-21 22:00:00
1:00 AM,60.8,53.6,77,29.68,-9999.0,ESE,6.9,-,N/A,,Clear,110,2013-03-21 23:00:00
2:00 AM,60,54,73,29.66,6,ESE,9.2,,,,,120,2013-03-22 00:00:00
2:00 AM,59.0,53.6,82,29.65,-9999.0,ESE,9.2,-,N/A,,Clear,120,2013-03-22 00:00:00
3:00 AM,57.2,53.6,88,29.62,-9999.0,ESE,8.1,-,N/A,,Clear,120,2013-03-22 01:00:00
4:00 AM,60.8,57.2,88,29.59,-9999.0,SE,4.6,-,N/A,,Clear,130,2013-03-22 02:00:00
5:00 AM,59.0,53.6,82,29.53,5.0,South,4.6,-,N/A,,Unknown,180,2013-03-22 03:00:00
6:00 AM,64.4,59.0,83,29.56,-9999.0,WSW,16.1,-,N/A,,Clear,240,2013-03-22 04:00:00
7:00 AM,64.4,57.2,77,29.59,3.7,West,23.0,-,N/A,,Scattered Clouds,270,2013-03-22 05:00:00
8:00 AM,66,57,65,29.64,4,West,25.3,,,,Blowing Sand,270,2013-03-22 06:00:00
8:00 AM,66.2,57.2,73,29.62,3.7,West,25.3,-,N/A,,Scattered Clouds,270,2013-03-22 06:00:00
9:00 AM,69.8,57.2,64,29.68,3.7,West,27.6,-,N/A,,Mostly Cloudy,280,2013-03-22 07:00:00
10:00 AM,68.0,55.4,64,29.71,3.7,West,25.3,-,N/A,,Mostly Cloudy,280,2013-03-22 08:00:00
11:00 AM,68.0,53.6,60,29.74,3.7,West,27.6,-,N/A,,Mostly Cloudy,280,2013-03-22 09:00:00
12:00 PM,68.0,51.8,56,29.77,3.7,West,27.6,-,N/A,,Mostly Cloudy,270,2013-03-22 10:00:00
1:00 PM,66.2,51.8,60,29.80,3.7,West,25.3,-,N/A,,Mostly Cloudy,280,2013-03-22 11:00:00
2:00 PM,68,52,47,29.81,4,West,25.3,,,,Mostly Cloudy,280,2013-03-22 12:00:00
2:00 PM,68.0,51.8,56,29.80,3.7,West,25.3,-,N/A,,Mostly Cloudy,280,2013-03-22 12:00:00
3:00 PM,68.0,50.0,52,29.80,3.7,West,25.3,-,N/A,,Mostly Cloudy,270,2013-03-22 13:00:00
4:00 PM,66.2,50.0,56,29.80,3.7,WNW,25.3,-,N/A,,Mostly Cloudy,290,2013-03-22 14:00:00
5:00 PM,64.4,50.0,59,29.83,6.2,WNW,20.7,-,N/A,,Scattered Clouds,290,2013-03-22 15:00:00
6:00 PM,62.6,50.0,63,29.83,6.2,West,18.4,-,N/A,,Scattered Clouds,280,2013-03-22 16:00:00
7:00 PM,62.6,50.0,63,29.86,6.2,West,20.7,-,N/A,,Scattered Clouds,280,2013-03-22 17:00:00
8:00 PM,62,50,54,29.88,6,West,15.0,,,,Partly Cloudy,280,2013-03-22 18:00:00
8:00 PM,62.6,50.0,63,29.86,6.2,West,15.0,-,N/A,,Scattered Clouds,280,2013-03-22 18:00:00
9:00 PM,62.6,50.0,63,29.89,6.2,WNW,18.4,-,N/A,,Scattered Clouds,290,2013-03-22 19:00:00
10:00 PM,62.6,50.0,63,29.92,6.2,West,20.7,-,N/A,,Scattered Clouds,270,2013-03-22 20:00:00
11:00 PM,60.8,50.0,68,29.92,6.2,West,18.4,-,N/A,,Scattered Clouds,280,2013-03-22 21:00:00